Sign-in with your pilot id or email, or register

ICAO: KORD Name / Country: Shahrekord Airport / Iran
Latitude: 32.2946 Longitude: 50.8377
Total Arrivals:
Deprecated: Non-static method AirportData::getarrflights() should not be called statically, assuming $this from incompatible context in /var/www/customers/vh-7192/web/home/phpvms/core/templates/airport_info.tpl on line 18
1
Total Departures:
Deprecated: Non-static method AirportData::getdeptflights() should not be called statically, assuming $this from incompatible context in /var/www/customers/vh-7192/web/home/phpvms/core/templates/airport_info.tpl on line 21
1
Latest Arrival: MTATIBI (KPDX-KORD) Tibor Berces Latest Departure: MTATIBI (KORD-CYHZ) Tibor Berces
Metar: KORD 050051Z 11006KT 9SM FEW065 FEW250 25/11 A3008 RMK AO2 SLP183 T02500111
More info

Charts for KORD


NOTAM


Warning: file_get_contents(http://api.vateud.net/notams/KORD.json): failed to open stream: HTTP request failed! HTTP/1.1 404 Not Found in /var/www/customers/vh-7192/web/home/phpvms/core/common/NOTAMSData.class.php on line 18

Warning: Invalid argument supplied for foreach() in /var/www/customers/vh-7192/web/home/phpvms/core/common/NOTAMSData.class.php on line 22

Shahrekord Airport